DECAYED

FENGYUN 1C DEB, 31983 (Decayed)

Orbit data source: Space-Track

FENGYUN 1C DEB, 31983 was space debris in SSO originally from a launch on Mon, 10 May 1999 UTC launched from the Taiyaun Space Center, China (TSC). Fengyun 1C debris stems from the Chinese weather satellite Fengyun-1C, which was intentionally destroyed by a Chinese anti-satellite missile in 2007. This event dramatically increased the amount of space debris, with thousands of trackable fragments posing hazards to satellites and human spaceflight. The Fengyun 1C debris cloud has become a focal point in discussions about space sustainability and the need for international regulations to prevent the creation of new debris.

Not visible in the next 10 days
Identifier
31983, 1999-025CPL
Orbit
Decayed
Country
Flag of CNCN / PRC
Related business
Manufacturer
Unknown
Mission
Decayed spacecraft
Bus & Motor
Unknown
Mass
Unknown
Launch date (UTC)
1999-05-10 (27 years ago)
Launch vehicle
Unknown
Launch site
Taiyaun Space Center, China (TSC)
Object type
Payload
Rocket body
Debris
Shape & HBR
Unknown shape, 0.1 m
Radar Cross Section
Small (<0.1 m²)

Expand to show TLE details & history
Last TLE update: 1 year ago

TLE from 1 year ago
0 FENGYUN 1C DEB
1 31983U 99025CPL 25225.80405153  .00981780  57250-3  10160-2 0  9996
2 31983  98.0128  63.6243 0020954  60.7489 299.5884 16.10247108683992
Epoch: 2025-08-13T19:17Z
TLE epoch observation values (Epoch: 2025-08-13T19:17:50.052Z)
Latitude
-0.00003°
Longitude
171.68866°
Altitude
242.525 km
Speed
7.765 km/s
True Right ascension
04h 14m 29s
True Declination
0° 00' 00"
Sunlit
Object was in daylight at epoch
Visualization orbit readout
Latitude
Unknown
Longitude
Unknown
Altitude
Unknown
Speed
Unknown
Apparent Right ascension
Unknown
Apparent Declination
Unknown
Sunlit
N/A
Visualization observer readout
Local Sidereal Time
00:05:01
Azimuth
Unknown
Elevation
Unknown
Doppler factor
Unknown
Orbital elements
Apogee altitude
256.914 km
Perigee altitude
229.166 km
Semi-major axis
6,621.177 km
Eccentricity
0.0021
Inclination
98.0128°
RAAN
63.6243°
Arg. of periapsis
60.7489°
True anomaly
299.37933°
Mean anomaly
299.5884°
Eccentric anomaly
299.48389°
Mean motion
4.02847 °/min
Orbital period
89.36 mins
BSTAR
0.001016
Loading maneuver chart data...
Computing Atmospheric mass density...
Loading historical data...
Loading historical data...
Loading historical data...
Loading historical data...
Loading historical data...
Loading historical data...
Loading historical data...

Documentation

Showing up to 5 results
|